STARLINK-5364, 55491

Orbit data source: Space-Track

STARLINK-5364, 55491 is a payload satellite owned by SpaceX/Seattle (US) in LEO that was launched on Thu, 02 Feb 2023 UTC via an FALCON 9 launch vehicle from the Air Force Eastern Test Range (AFETR). Payload-class satellites include a variety of spacecraft equipped with specific instruments for various scientific and technological missions. These include communications satellites like Starlink; space stations such as the ISS; scientific satellites like the Hubble; Earth observation satellites from companies like Planet Labs, Umbra, and HawkEye 360; GPS; miniature CubeSats for education and research; and military/defense satellites.

Loading next visibility...
Identifier
55491, 2023-015AU
Orbit
LEO
Country
Flag of USUS
Related business
Manufacturer
SpaceX/Seattle
Mission
Operational Commercial Communications
Bus & Motor
STARLINK, Unknown motor
Mass
305 kg wet, ~290 kg dry
Launch date (UTC)
2023-02-02 (3 years ago)
Launch vehicle
FALCON 9
Launch site
Air Force Eastern Test Range (AFETR)
Object type
Payload
Rocket body
Debris
Shape & HBR
Box + 1 Pan, 10.1 m
Radar Cross Section
13.562 m², Large (>1 m²)

Expand to show TLE details & history
Last TLE update: 17 hours ago

TLE from 17 hours ago
0 STARLINK-5364
1 55491U 23015AU  25288.28419064 -.00000026  00000-0  13175-4 0  9994
2 55491  43.0060  22.8585 0001122 276.0581  84.0134 15.02536758149033
Epoch: 2025-10-15T06:49Z
TLE epoch observation values (Epoch: 2025-10-15T06:49:14.071Z)
Latitude
0.00002°
Longitude
-103.51058°
Altitude
558.775 km
Speed
7.584 km/s
True Right ascension
01h 31m 26s
True Declination
0° 00' 00"
Sunlit
Object was in full shadow at epoch
Visualization orbit readout
Latitude
Unknown
Longitude
Unknown
Altitude
Unknown
Speed
Unknown
Apparent Right ascension
Unknown
Apparent Declination
Unknown
Sunlit
N/A
Visualization observer readout
Local Sidereal Time
18:43:03
Azimuth
Unknown
Elevation
Unknown
Doppler factor
Unknown
Orbital elements
Apogee altitude
561.779 km
Perigee altitude
560.222 km
Semi-major axis
6,939.137 km
Eccentricity
0.00011
Inclination
43.006°
RAAN
22.8585°
Arg. of periapsis
276.0581°
True anomaly
84.02619°
Mean anomaly
84.0134°
Eccentric anomaly
84.01979°
Mean motion
3.75478 °/min
Orbital period
95.88 mins
BSTAR
0.000013175
Loading maneuver chart data...
Computing Atmospheric mass density...
Loading historical data...
Loading historical data...
Loading historical data...
Loading historical data...
Loading historical data...
Loading historical data...
Loading historical data...

Documentation

Showing up to 5 results
|